FW0639 Weather Reports


time (UTC)temp
C
wind
direction
speed
KPH
gust
KPH
rain 1hr
cm
rain 24hr
cm
rain mn
cm
humidity
%
barometer
mb
20260903132841 11 8 0.0 0.0 0.00 0.00 0.00 69 1005.0
20260903131857 11 9 0.0 0.0 0.00 0.00 0.00 69 1004.8
20260903130842 11 9 0.0 0.0 0.00 0.00 0.00 68 1004.8
20260903125822 11 9 0.0 0.0 0.00 0.00 0.00 67 1004.7
20260903124847 11 7 0.0 0.0 0.00 0.00 0.00 66 1004.6
20260903123836 11 7 0.0 1.6 0.00 0.00 0.00 65 1004.6
20260903122854 11 10 0.0 3.2 0.00 0.00 0.00 64 1004.6
20260903121917 11 323 0.0 0.0 0.00 0.00 0.00 66 1004.5
20260903120918 10 18 0.0 3.2 0.00 0.00 0.00 67 1004.6
20260903115910 10 21 0.0 3.2 0.00 0.00 0.00 71 1004.5
20260903114924 10 20 0.0 0.0 0.00 0.00 0.00 71 1004.6
20260903113918 10 20 0.0 0.0 0.00 0.00 0.00 71 1004.6
20260903112859 10 25 0.0 0.0 0.00 0.00 0.00 71 1004.6
20260903111835 10 37 0.0 0.0 0.00 0.00 0.00 71 1004.7
20260903110854 10 32 0.0 0.0 0.00 0.00 0.00 71 1004.7
20260903105854 10 32 0.0 0.0 0.00 0.00 0.00 71 1004.6
20260903104848 10 32 0.0 0.0 0.00 0.00 0.00 71 1004.6
20260903103824 10 30 0.0 0.0 0.00 0.00 0.00 71 1004.7
20260903102752 9 37 0.0 0.0 0.00 0.00 0.00 72 1004.7
20260903101810 9 42 0.0 0.0 0.00 0.00 0.00 72 1004.6
20260903095554 9 43 0.0 1.6 0.00 0.00 0.00 71 1004.6
20260903094537 9 51 0.0 0.0 0.00 0.00 0.00 71 1004.7
20260903092413 9 43 0.0 0.0 0.00 0.00 0.00 71 1004.7
20260903091438 9 41 0.0 0.0 0.00 0.00 0.00 71 1004.7
20260903085409 9 43 0.0 1.6 0.00 0.00 0.00 71 1004.4
20260903084350 9 44 0.0 0.0 0.00 0.00 0.00 71 1004.3
20260903083320 9 52 0.0 0.0 0.00 0.00 0.00 71 1004.4
20260903080016 9 51 0.0 0.0 0.00 0.00 0.00 69 1004.1
20260903073832 9 47 0.0 3.2 0.00 0.00 0.00 68 1004.2
20260903072842 9 45 0.0 0.0 0.00 0.00 0.00 69 1004.2
20260903071814 9 43 0.0 3.2 0.00 0.00 0.00 69 1004.2
20260903070743 9 42 0.0 0.0 0.00 0.00 0.00 69 1003.9
20260903065729 9 43 0.0 0.0 0.00 0.00 0.00 69 1004.1
20260903064659 10 39 0.0 4.8 0.00 0.00 0.00 68 1004.1
20260903063712 10 43 0.0 0.0 0.00 0.00 0.00 67 1003.8
20260903062701 10 37 0.0 0.0 0.00 0.00 0.00 67 1004.3
20260903061643 10 25 0.0 0.0 0.00 0.00 0.00 66 1004.4
20260903060623 11 29 0.0 0.0 0.00 0.00 0.00 64 1004.5
20260903055629 11 10 0.0 0.0 0.00 0.00 0.00 63 1004.3
20260903053433 12 3 0.0 0.0 0.00 0.00 0.00 60 1004.4
20260903052421 12 359 0.0 0.0 0.00 0.00 0.00 58 1004.2
20260903051441 12 1 0.0 3.2 0.00 0.00 0.00 57 1004.2
20260903050422 12 359 0.0 3.2 0.00 0.00 0.00 56 1004.2
20260903045358 13 358 0.0 0.0 0.00 0.00 0.00 54 1004.1
20260903044343 13 355 0.0 0.0 0.00 0.00 0.00 56 1004.1
20260903043345 13 352 0.0 0.0 0.00 0.00 0.00 51 1004.0
20260903042344 14 349 1.6 4.8 0.00 0.00 0.00 49 1004.1
20260903041315 15 349 0.0 4.8 0.00 0.00 0.00 48 1004.2
20260903040332 15 347 0.0 0.0 0.00 0.00 0.00 49 1004.1
20260903035259 15 345 0.0 0.0 0.00 0.00 0.00 48 1004.1
20260903034311 15 344 0.0 0.0 0.00 0.00 0.00 46 1003.9
20260903033334 15 344 0.0 0.0 0.00 0.00 0.00 47 1003.7
20260903032339 16 344 0.0 1.6 0.00 0.00 0.00 48 1003.7
20260903031354 16 343 0.0 0.0 0.00 0.00 0.00 49 1003.6
20260903030350 16 342 0.0 0.0 0.00 0.00 0.00 48 1003.6
20260903025334 17 342 0.0 0.0 0.00 0.00 0.00 48 1003.5
20260903024351 17 343 0.0 0.0 0.00 0.00 0.00 47 1003.2
20260903022219 18 341 0.0 1.6 0.00 0.00 0.00 45 1002.8
20260903021226 18 342 0.0 0.0 0.00 0.00 0.00 45 1002.7
20260903020235 18 341 0.0 0.0 0.00 0.00 0.00 44 1002.3
20260903015236 19 340 0.0 0.0 0.00 0.00 0.00 43 1002.2
20260903014212 20 340 0.0 0.0 0.00 0.00 0.00 42 1002.0
20260903013234 20 339 0.0 6.4 0.00 0.00 0.00 41 1002.1
20260903012254 20 339 0.0 6.4 0.00 0.00 0.00 40 1002.1
20260903011306 21 339 0.0 11.3 0.00 0.00 0.00 38 1002.0
20260903010329 21 340 0.0 4.8 0.00 0.00 0.00 39 1001.9
20260903005259 22 340 0.0 11.3 0.00 0.00 0.00 36 1001.6
20260903004307 22 340 0.0 3.2 0.00 0.00 0.00 35 1001.6
20260903003315 23 341 0.0 4.8 0.00 0.00 0.00 35 1001.7
20260903002326 23 340 1.6 16.1 0.00 0.00 0.00 34 1001.4
20260903001302 24 341 3.2 30.6 0.00 0.00 0.00 30 1001.2
20260902233926 23 338 0.0 6.4 0.00 0.00 0.00 30 999.9
20260902232911 24 338 0.0 6.4 0.00 0.00 0.00 29 999.8
20260902230649 26 14 4.8 25.7 0.00 0.00 0.00 23 999.6
20260902224523 29 68 8.0 22.5 0.00 0.00 0.00 20 999.2
20260902223531 29 7 9.7 33.8 0.00 0.00 0.00 20 999.0
20260902222547 29 57 8.0 33.8 0.00 0.00 0.00 20 998.9
20260902221549 28 348 8.0 25.7 0.00 0.00 0.00 19 999.0
20260902215423 30 107 8.0 22.5 0.00 0.00 0.00 18 998.9
20260902214349 30 120 9.7 20.9 0.00 0.00 0.00 22 998.8
20260902213346 30 86 3.2 14.5 0.00 0.00 0.00 26 999.1
20260902212405 29 112 6.4 35.4 0.00 0.00 0.00 27 999.1
20260902211400 28 59 6.4 24.1 0.00 0.00 0.00 26 999.3
20260902210341 27 11 3.2 12.9 0.00 0.00 0.00 22 999.5
20260902205343 27 337 9.7 35.4 0.00 0.00 0.00 23 999.7
20260902204400 28 345 8.0 24.1 0.00 0.00 0.00 26 1000.0
20260902203418 29 93 6.4 22.5 0.00 0.00 0.00 26 999.9
20260902201306 29 92 4.8 22.5 0.00 0.00 0.00 29 1000.0
20260902195118 29 161 8.0 19.3 0.00 0.00 0.00 29 1000.3
20260902194049 29 177 4.8 19.3 0.00 0.00 0.00 29 1000.4
20260902193031 28 183 4.8 14.5 0.00 0.00 0.00 30 1000.5
20260902192017 28 185 4.8 14.5 0.00 0.00 0.00 28 1000.6
20260902191006 26 193 0.0 8.0 0.00 0.00 0.00 36 1000.6
20260902190021 26 191 0.0 4.8 0.00 0.00 0.00 40 1000.8
20260902184951 26 185 0.0 0.0 0.00 0.00 0.00 41 1001.1
20260902182829 26 323 0.0 0.0 0.00 0.00 0.00 35 1001.4
20260902175508 26 179 0.0 6.4 0.00 0.00 0.00 39 1001.9
20260902174528 25 178 1.6 8.0 0.00 0.00 0.00 36 1001.9
20260902172415 25 193 0.0 4.8 0.00 0.00 0.00 40 1002.0
20260902171415 23 184 0.0 1.6 0.00 0.00 0.00 41 1002.2
20260902170353 22 183 0.0 1.6 0.00 0.00 0.00 45 1002.3
20260902165353 22 108 0.0 11.3 0.00 0.00 0.00 50 1002.5
20260902164336 21 4 0.0 1.6 0.00 0.00 0.00 50 1002.5
20260902163303 21 61 0.0 1.6 0.00 0.00 0.00 54 1002.7
20260902162306 20 112 0.0 4.8 0.00 0.00 0.00 56 1002.9
20260902161319 20 45 0.0 0.0 0.00 0.00 0.00 55 1002.9
20260902160339 19 359 0.0 0.0 0.00 0.00 0.00 62 1003.1
20260902152006 16 191 3.2 8.0 0.00 0.00 0.00 68 1003.6
20260902151007 15 192 3.2 8.0 0.00 0.00 0.00 72 1003.7
20260902144808 14 193 0.0 1.6 0.00 0.00 0.00 74 1004.2
20260902143830 13 193 0.0 4.8 0.00 0.00 0.00 75 1004.3
20260902142835 13 193 0.0 0.0 0.00 0.00 0.00 74 1004.3
20260902140758 13 193 1.6 6.4 0.00 0.00 0.00 73 1004.2
20260902135803 12 193 0.0 0.0 0.00 0.00 0.00 76 1004.1
20260902134752 11 193 0.0 3.2 0.00 0.00 0.00 78 1004.1